Location: Bauerbach
(50.4985°N, 10.3912°E)
Time: 18:40:38
(UTC+00:00)

FengYun 1-2 T - Pass Details

Date: 13 January 2026
Orbit: 844 x 880 km, 98.8° (Epoch: 17 February)

Event Time Altitude Azimuth Distance (km) Brightness Sun altitude
Rises 03:56:31 0° 16° (NNE) 3,469 7.6 -30.7°
Reaches altitude 10° 03:58:57 10° 19° (NNE) 2,522 6.9 -30.3°
Maximum altitude 04:04:32 68° 103° (ESE) 926 4.4 -29.4°
Enters shadow 04:06:57 34° 176° (S) 1,373 5.2 -29.0°
